Location: Six Mile Lake
(44.9000°N, 79.7170°W)
Time: 15:31:20
(UTC-04:00)

LO-87 - Pass Details

Date: 02 July 2022
Orbit: 450 x 466 km, 97.4° (Epoch: 17 August)

Event Time Altitude Azimuth Distance (km) Brightness Sun altitude
Exits shadow 00:06:03 23° 80° (E) 1,034 ? -19.8°
Maximum altitude 00:06:28 23° 69° (ENE) 1,018 ? -19.9°
Drops below altitude 10° 00:09:17 10° 14° (NNE) 1,624 ? -20.0°
Sets 00:11:36 0° 0° (N) 2,509 ? -20.1°
